Location: Agendoh
(31.0664°N, 8.9343°W)
Time: 23:10:12
(UTC+00:00)

Lacrosse 5 - Pass Details

Date: 03 July 2022
Orbit: 714 x 724 km, 57.0° (Epoch: 09 March)

Event Time Altitude Azimuth Distance (km) Brightness Sun altitude
Rises 21:16:05 0° 332° (NNW) 3,138 6.5 -17.2°
Reaches altitude 10° 21:18:44 10° 343° (NNW) 2,214 5.3 -17.6°
Maximum altitude 21:23:14 31° 45° (NE) 1,262 3.1 -18.3°
Enters shadow 21:25:17 23° 85° (E) 1,509 3.2 -18.7°
